Time,TemperatureF,DewpointF,PressureIn,WindDirection,WindDirectionDegrees,WindSpeedMPH,WindSpeedGustMPH,Humidity,HourlyPrecipIn,Conditions,Clouds,dailyrainin,SoftwareType,DateUTC
2013-02-11 00:00:00,27.5,9.9,29.41,SW,234,0.0,0.0,47,0.00,,---,0.00,VWS V13.00,2013-02-11 09:00:00,
2013-02-11 00:05:00,27.7,10.1,29.41,WNW,296,0.0,0.0,47,0.00,,---,0.00,VWS V13.00,2013-02-11 09:05:00,
2013-02-11 00:10:00,27.7,10.1,29.41,NW,304,0.0,0.0,47,0.00,,---,0.00,VWS V13.00,2013-02-11 09:10:00,
2013-02-11 00:15:00,27.7,10.1,29.41,WNW,303,0.0,0.0,47,0.00,,---,0.00,VWS V13.00,2013-02-11 09:15:00,
2013-02-11 00:20:00,27.7,10.1,29.41,North,353,0.0,0.0,47,0.00,,---,0.00,VWS V13.00,2013-02-11 09:20:00,
2013-02-11 00:25:00,27.5,10.4,29.41,NW,311,0.0,0.0,48,0.00,,---,0.00,VWS V13.00,2013-02-11 09:25:00,
2013-02-11 00:30:00,27.1,9.6,29.41,NNW,328,0.0,0.0,47,0.00,,---,0.00,VWS V13.00,2013-02-11 09:30:00,
2013-02-11 00:35:00,27.1,9.6,29.41,WNW,299,0.0,0.0,47,0.00,,---,0.00,VWS V13.00,2013-02-11 09:35:00,
2013-02-11 00:40:00,27.1,9.6,29.44,WNW,297,0.0,0.0,47,0.00,,---,0.00,VWS V13.00,2013-02-11 09:40:00,
2013-02-11 00:45:00,27.1,9.6,29.44,NNW,344,0.0,0.0,47,0.00,,---,0.00,VWS V13.00,2013-02-11 09:45:00,
2013-02-11 00:50:00,27.0,9.4,29.44,NNW,327,0.0,0.0,47,0.00,,---,0.00,VWS V13.00,2013-02-11 09:50:00,
2013-02-11 00:55:00,27.0,9.4,29.44,NW,323,0.0,0.0,47,0.00,,---,0.00,VWS V13.00,2013-02-11 09:55:00,
2013-02-11 01:00:00,27.0,9.4,29.44,West,276,0.0,0.0,47,0.00,,---,0.00,VWS V13.00,2013-02-11 10:00:00,
2013-02-11 01:05:00,27.0,9.4,29.44,WSW,239,0.0,0.0,47,0.00,,---,0.00,VWS V13.00,2013-02-11 10:05:00,
2013-02-11 01:10:00,26.4,9.4,29.44,WNW,289,0.0,0.0,48,0.00,,---,0.00,VWS V13.00,2013-02-11 10:10:00,
2013-02-11 01:15:00,26.4,9.4,29.44,WNW,289,0.0,0.0,48,0.00,,---,0.00,VWS V13.00,2013-02-11 10:15:00,
2013-02-11 01:20:00,26.4,9.4,29.44,West,276,0.0,0.0,48,0.00,,---,0.00,VWS V13.00,2013-02-11 10:20:00,
2013-02-11 01:25:00,26.4,9.4,29.44,West,277,0.0,0.0,48,0.00,,---,0.00,VWS V13.00,2013-02-11 10:25:00,
2013-02-11 01:30:00,26.4,9.4,29.44,West,273,0.0,0.0,48,0.00,,---,0.00,VWS V13.00,2013-02-11 10:30:00,
2013-02-11 01:35:00,26.1,8.6,29.44,WSW,241,0.0,0.0,47,0.00,,---,0.00,VWS V13.00,2013-02-11 10:35:00,
2013-02-11 01:40:00,25.9,8.9,29.44,SW,219,0.0,0.0,48,0.00,,---,0.00,VWS V13.00,2013-02-11 10:40:00,
2013-02-11 01:45:00,25.9,8.9,29.44,SW,227,0.0,0.0,48,0.00,,---,0.00,VWS V13.00,2013-02-11 10:45:00,
2013-02-11 01:50:00,25.9,8.9,29.44,WSW,244,0.0,0.0,48,0.00,,---,0.00,VWS V13.00,2013-02-11 10:50:00,
2013-02-11 01:55:00,25.9,8.9,29.44,NW,304,0.0,0.0,48,0.00,,---,0.00,VWS V13.00,2013-02-11 10:55:00,
2013-02-11 02:00:00,25.9,9.4,29.44,SSW,210,0.0,0.0,49,0.00,,---,0.00,VWS V13.00,2013-02-11 11:00:00,
2013-02-11 02:05:00,25.5,9.5,29.44,WSW,239,0.0,0.0,50,0.00,,---,0.00,VWS V13.00,2013-02-11 11:05:00,
2013-02-11 02:10:00,25.5,9.5,29.44,NW,313,0.0,0.0,50,0.00,,---,0.00,VWS V13.00,2013-02-11 11:10:00,
2013-02-11 02:15:00,25.5,9.5,29.44,SSW,192,0.0,0.0,50,0.00,,---,0.00,VWS V13.00,2013-02-11 11:15:00,
2013-02-11 02:20:00,25.0,8.5,29.44,NNE,25,0.0,0.0,49,0.00,,---,0.00,VWS V13.00,2013-02-11 11:20:00,
2013-02-11 02:25:00,25.0,8.5,29.44,SW,224,0.0,0.0,49,0.00,,---,0.00,VWS V13.00,2013-02-11 11:25:00,
2013-02-11 02:30:00,24.8,8.4,29.44,ENE,68,0.0,0.0,49,0.00,,---,0.00,VWS V13.00,2013-02-11 11:30:00,
2013-02-11 02:35:00,24.8,8.4,29.47,SSE,162,0.0,0.0,49,0.00,,---,0.00,VWS V13.00,2013-02-11 11:35:00,
2013-02-11 02:40:00,24.8,8.4,29.47,SSE,157,0.0,0.0,49,0.00,,---,0.00,VWS V13.00,2013-02-11 11:40:00,
2013-02-11 02:45:00,24.4,7.1,29.47,SE,133,0.0,0.0,47,0.00,,---,0.00,VWS V13.00,2013-02-11 11:45:00,
2013-02-11 02:50:00,24.6,6.8,29.47,East,93,0.0,0.0,46,0.00,,---,0.00,VWS V13.00,2013-02-11 11:50:00,
2013-02-11 02:55:00,24.6,6.8,29.47,North,2,0.0,0.0,46,0.00,,---,0.00,VWS V13.00,2013-02-11 11:55:00,
2013-02-11 03:00:00,24.6,6.8,29.47,North,2,0.0,0.0,46,0.00,,---,0.00,VWS V13.00,2013-02-11 12:00:00,
2013-02-11 03:05:00,24.6,6.8,29.47,East,101,0.0,0.0,46,0.00,,---,0.00,VWS V13.00,2013-02-11 12:05:00,
2013-02-11 03:10:00,24.3,6.9,29.47,NE,56,0.0,0.0,47,0.00,,---,0.00,VWS V13.00,2013-02-11 12:10:00,
2013-02-11 03:15:00,24.3,6.9,29.47,SE,127,0.0,0.0,47,0.00,,---,0.00,VWS V13.00,2013-02-11 12:15:00,
2013-02-11 03:20:00,24.3,6.9,29.47,NE,50,0.0,0.0,47,0.00,,---,0.00,VWS V13.00,2013-02-11 12:20:00,
2013-02-11 03:25:00,24.3,6.9,29.47,ESE,104,0.0,0.0,47,0.00,,---,0.00,VWS V13.00,2013-02-11 12:25:00,
2013-02-11 03:30:00,24.3,6.9,29.47,East,93,0.0,0.0,47,0.00,,---,0.00,VWS V13.00,2013-02-11 12:30:00,
2013-02-11 03:35:00,23.5,7.2,29.47,East,93,0.0,0.0,49,0.00,,---,0.00,VWS V13.00,2013-02-11 12:35:00,
2013-02-11 03:40:00,23.5,7.2,29.47,East,95,0.0,0.0,49,0.00,,---,0.00,VWS V13.00,2013-02-11 12:40:00,
2013-02-11 03:45:00,23.5,7.2,29.47,SSE,158,0.0,0.0,49,0.00,,---,0.00,VWS V13.00,2013-02-11 12:45:00,
2013-02-11 03:50:00,23.5,7.2,29.47,NE,52,0.0,0.0,49,0.00,,---,0.00,VWS V13.00,2013-02-11 12:50:00,
2013-02-11 03:55:00,23.5,7.2,29.47,NE,52,0.0,0.0,49,0.00,,---,0.00,VWS V13.00,2013-02-11 12:55:00,
2013-02-11 04:00:00,23.5,7.7,29.47,NE,52,0.0,0.0,50,0.00,,---,0.00,VWS V13.00,2013-02-11 13:00:00,
2013-02-11 04:05:00,23.5,7.7,29.47,NE,52,0.0,0.0,50,0.00,,---,0.00,VWS V13.00,2013-02-11 13:05:00,
2013-02-11 04:10:00,23.5,7.7,29.47,NE,52,0.0,0.0,50,0.00,,---,0.00,VWS V13.00,2013-02-11 13:10:00,
2013-02-11 04:15:00,23.5,7.7,29.47,NE,44,0.0,0.0,50,0.00,,---,0.00,VWS V13.00,2013-02-11 13:15:00,
2013-02-11 04:20:00,22.8,7.8,29.47,NE,44,0.0,0.0,52,0.00,,---,0.00,VWS V13.00,2013-02-11 13:20:00,
2013-02-11 04:25:00,22.8,7.8,29.47,NE,44,0.0,0.0,52,0.00,,---,0.00,VWS V13.00,2013-02-11 13:25:00,
2013-02-11 04:30:00,22.6,7.7,29.47,NE,44,0.0,0.0,52,0.00,,---,0.00,VWS V13.00,2013-02-11 13:30:00,
2013-02-11 04:35:00,22.6,7.7,29.50,NE,44,0.0,0.0,52,0.00,,---,0.00,VWS V13.00,2013-02-11 13:35:00,
2013-02-11 04:40:00,22.6,7.7,29.50,NE,44,0.0,0.0,52,0.00,,---,0.00,VWS V13.00,2013-02-11 13:40:00,
2013-02-11 04:45:00,22.5,7.9,29.50,NE,44,0.0,0.0,53,0.00,,---,0.00,VWS V13.00,2013-02-11 13:45:00,
2013-02-11 04:50:00,22.5,7.9,29.50,NE,44,0.0,0.0,53,0.00,,---,0.00,VWS V13.00,2013-02-11 13:50:00,
2013-02-11 04:55:00,22.5,7.9,29.50,NE,44,0.0,0.0,53,0.00,,---,0.00,VWS V13.00,2013-02-11 13:55:00,
2013-02-11 05:00:00,22.5,7.9,29.50,NE,44,0.0,0.0,53,0.00,,---,0.00,VWS V13.00,2013-02-11 14:00:00,
2013-02-11 05:05:00,21.7,8.1,29.50,ENE,76,0.0,0.0,55,0.00,,---,0.00,VWS V13.00,2013-02-11 14:05:00,
2013-02-11 05:10:00,21.6,7.9,29.50,ENE,71,0.0,0.0,55,0.00,,---,0.00,VWS V13.00,2013-02-11 14:10:00,
2013-02-11 05:15:00,21.6,7.9,29.50,ENE,71,0.0,0.0,55,0.00,,---,0.00,VWS V13.00,2013-02-11 14:15:00,
2013-02-11 05:20:00,21.6,7.9,29.50,ENE,71,0.0,0.0,55,0.00,,---,0.00,VWS V13.00,2013-02-11 14:20:00,
2013-02-11 05:25:00,21.6,7.9,29.50,ENE,71,0.0,0.0,55,0.00,,---,0.00,VWS V13.00,2013-02-11 14:25:00,
2013-02-11 05:30:00,21.6,7.9,29.50,ENE,71,0.0,0.0,55,0.00,,---,0.00,VWS V13.00,2013-02-11 14:30:00,
2013-02-11 05:35:00,21.9,8.6,29.50,ENE,71,0.0,0.0,56,0.00,,---,0.00,VWS V13.00,2013-02-11 14:35:00,
2013-02-11 05:40:00,22.1,8.8,29.50,ENE,71,0.0,0.0,56,0.00,,---,0.00,VWS V13.00,2013-02-11 14:40:00,
2013-02-11 05:45:00,22.1,8.8,29.50,ENE,71,0.0,0.0,56,0.00,,---,0.00,VWS V13.00,2013-02-11 14:45:00,
2013-02-11 05:50:00,22.1,8.8,29.50,ENE,71,0.0,0.0,56,0.00,,---,0.00,VWS V13.00,2013-02-11 14:50:00,
2013-02-11 05:55:00,21.6,8.3,29.50,ENE,71,0.0,0.0,56,0.00,,---,0.00,VWS V13.00,2013-02-11 14:55:00,
2013-02-11 06:00:00,21.4,8.1,29.50,ENE,71,0.0,0.0,56,0.00,,---,0.00,VWS V13.00,2013-02-11 15:00:00,
2013-02-11 06:05:00,21.4,8.1,29.50,ENE,71,0.0,0.0,56,0.00,,---,0.00,VWS V13.00,2013-02-11 15:05:00,
2013-02-11 06:10:00,21.4,8.1,29.50,ENE,71,0.0,0.0,56,0.00,,---,0.00,VWS V13.00,2013-02-11 15:10:00,
2013-02-11 06:15:00,21.4,8.1,29.50,ENE,71,0.0,0.0,56,0.00,,---,0.00,VWS V13.00,2013-02-11 15:15:00,
2013-02-11 06:20:00,21.6,8.7,29.50,ENE,71,0.0,0.0,57,0.00,,---,0.00,VWS V13.00,2013-02-11 15:20:00,
2013-02-11 06:25:00,21.6,8.7,29.50,ENE,71,0.0,0.0,57,0.00,,---,0.00,VWS V13.00,2013-02-11 15:25:00,
2013-02-11 06:30:00,21.6,8.7,29.50,ENE,71,0.0,0.0,57,0.00,,---,0.00,VWS V13.00,2013-02-11 15:30:00,
2013-02-11 06:35:00,21.6,8.7,29.50,ENE,71,0.0,0.0,57,0.00,,---,0.00,VWS V13.00,2013-02-11 15:35:00,
2013-02-11 06:40:00,21.6,8.7,29.50,ENE,71,0.0,0.0,57,0.00,,---,0.00,VWS V13.00,2013-02-11 15:40:00,
2013-02-11 06:45:00,20.7,8.2,29.50,ENE,71,0.0,0.0,58,0.00,,---,0.00,VWS V13.00,2013-02-11 15:45:00,
2013-02-11 06:50:00,20.7,8.2,29.50,ENE,71,0.0,0.0,58,0.00,,---,0.00,VWS V13.00,2013-02-11 15:50:00,
2013-02-11 06:55:00,20.7,8.2,29.50,ENE,71,0.0,0.0,58,0.00,,---,0.00,VWS V13.00,2013-02-11 15:55:00,
2013-02-11 07:00:00,20.7,8.2,29.50,ENE,71,0.0,0.0,58,0.00,,---,0.00,VWS V13.00,2013-02-11 16:00:00,
2013-02-11 07:05:00,20.3,8.3,29.50,ENE,71,0.0,0.0,59,0.00,,---,0.00,VWS V13.00,2013-02-11 16:05:00,
2013-02-11 07:10:00,20.1,8.1,29.50,ENE,71,0.0,0.0,59,0.00,,---,0.00,VWS V13.00,2013-02-11 16:10:00,
2013-02-11 07:15:00,20.1,8.1,29.50,ENE,71,0.0,0.0,59,0.00,,---,0.00,VWS V13.00,2013-02-11 16:15:00,
2013-02-11 07:20:00,20.1,8.1,29.50,ENE,71,0.0,0.0,59,0.00,,---,0.00,VWS V13.00,2013-02-11 16:20:00,
2013-02-11 07:25:00,20.1,8.1,29.50,ENE,71,0.0,0.0,59,0.00,,---,0.00,VWS V13.00,2013-02-11 16:25:00,
2013-02-11 07:30:00,20.1,8.5,29.50,ENE,71,0.0,0.0,60,0.00,,---,0.00,VWS V13.00,2013-02-11 16:30:00,
2013-02-11 07:35:00,20.5,8.8,29.50,ENE,71,0.0,0.0,60,0.00,,---,0.00,VWS V13.00,2013-02-11 16:35:00,
2013-02-11 07:40:00,20.5,8.8,29.50,ENE,71,0.0,0.0,60,0.00,,---,0.00,VWS V13.00,2013-02-11 16:40:00,
2013-02-11 07:45:00,20.5,8.8,29.50,ENE,71,0.0,0.0,60,0.00,,---,0.00,VWS V13.00,2013-02-11 16:45:00,
2013-02-11 07:50:00,20.5,8.8,29.50,ENE,71,0.0,0.0,60,0.00,,---,0.00,VWS V13.00,2013-02-11 16:50:00,
2013-02-11 07:55:00,20.1,8.8,29.50,ENE,71,0.0,0.0,61,0.00,,---,0.00,VWS V13.00,2013-02-11 16:55:00,
2013-02-11 08:00:00,20.1,8.8,29.50,ENE,71,0.0,0.0,61,0.00,,---,0.00,VWS V13.00,2013-02-11 17:00:00,
2013-02-11 08:05:00,20.1,8.8,29.50,ENE,71,0.0,0.0,61,0.00,,---,0.00,VWS V13.00,2013-02-11 17:05:00,
2013-02-11 08:10:00,20.1,8.8,29.50,ENE,71,0.0,0.0,61,0.00,,---,0.00,VWS V13.00,2013-02-11 17:10:00,
2013-02-11 08:15:00,20.1,8.8,29.50,ENE,71,0.0,0.0,61,0.00,,---,0.00,VWS V13.00,2013-02-11 17:15:00,
2013-02-11 08:20:00,20.3,9.4,29.50,ENE,71,0.0,0.0,62,0.00,,---,0.00,VWS V13.00,2013-02-11 17:20:00,
2013-02-11 08:25:00,20.3,9.4,29.50,ENE,71,0.0,0.0,62,0.00,,---,0.00,VWS V13.00,2013-02-11 17:25:00,
2013-02-11 08:30:00,20.3,9.4,29.50,ENE,71,0.0,0.0,62,0.00,,---,0.00,VWS V13.00,2013-02-11 17:30:00,
2013-02-11 08:35:00,20.3,9.4,29.50,ENE,71,0.0,0.0,62,0.00,,---,0.00,VWS V13.00,2013-02-11 17:35:00,
2013-02-11 08:40:00,19.9,9.7,29.50,ENE,71,0.0,0.0,64,0.00,,---,0.00,VWS V13.00,2013-02-11 17:40:00,
2013-02-11 08:45:00,19.9,9.7,29.50,ENE,71,0.0,0.0,64,0.00,,---,0.00,VWS V13.00,2013-02-11 17:45:00,
2013-02-11 08:50:00,19.9,9.7,29.50,ENE,71,0.0,0.0,64,0.00,,---,0.00,VWS V13.00,2013-02-11 17:50:00,
2013-02-11 08:55:00,19.9,9.7,29.53,ENE,71,0.0,0.0,64,0.00,,---,0.00,VWS V13.00,2013-02-11 17:55:00,
2013-02-11 09:00:00,19.9,9.7,29.53,ENE,71,0.0,0.0,64,0.00,,---,0.00,VWS V13.00,2013-02-11 18:00:00,
2013-02-11 09:05:00,20.3,10.4,29.53,ENE,71,0.0,0.0,65,0.00,,---,0.00,VWS V13.00,2013-02-11 18:05:00,
2013-02-11 09:10:00,20.3,10.4,29.53,ENE,71,0.0,0.0,65,0.00,,---,0.00,VWS V13.00,2013-02-11 18:10:00,
2013-02-11 09:15:00,20.3,10.4,29.53,ENE,71,0.0,0.0,65,0.00,,---,0.00,VWS V13.00,2013-02-11 18:15:00,
2013-02-11 09:20:00,20.3,10.4,29.50,ENE,71,0.0,0.0,65,0.00,,---,0.00,VWS V13.00,2013-02-11 18:20:00,
2013-02-11 09:25:00,20.3,10.4,29.50,ENE,71,0.0,0.0,65,0.00,,---,0.00,VWS V13.00,2013-02-11 18:25:00,
2013-02-11 09:30:00,20.7,11.8,29.50,ENE,71,0.0,0.0,68,0.00,,---,0.00,VWS V13.00,2013-02-11 18:30:00,
2013-02-11 09:35:00,20.8,12.0,29.50,ENE,71,0.0,0.0,68,0.00,,---,0.00,VWS V13.00,2013-02-11 18:35:00,
2013-02-11 09:40:00,20.8,12.0,29.50,ENE,71,0.0,0.0,68,0.00,,---,0.00,VWS V13.00,2013-02-11 18:40:00,
2013-02-11 09:45:00,20.8,12.0,29.50,ENE,71,0.0,0.0,68,0.00,,---,0.00,VWS V13.00,2013-02-11 18:45:00,
2013-02-11 09:50:00,22.3,13.3,29.50,ENE,71,0.0,0.0,68,0.00,,---,0.00,VWS V13.00,2013-02-11 18:50:00,
2013-02-11 09:55:00,22.3,13.3,29.50,ENE,71,0.0,0.0,68,0.00,,---,0.00,VWS V13.00,2013-02-11 18:55:00,
2013-02-11 10:00:00,22.3,13.3,29.50,ENE,71,0.0,0.0,68,0.00,,---,0.00,VWS V13.00,2013-02-11 19:00:00,
2013-02-11 10:05:00,22.3,13.3,29.50,ENE,71,0.0,0.0,68,0.00,,---,0.00,VWS V13.00,2013-02-11 19:05:00,
2013-02-11 10:10:00,22.3,13.3,29.50,ENE,71,0.0,0.0,68,0.00,,---,0.00,VWS V13.00,2013-02-11 19:10:00,
2013-02-11 10:15:00,23.5,14.9,29.50,ENE,71,0.0,0.0,69,0.00,,---,0.00,VWS V13.00,2013-02-11 19:15:00,
2013-02-11 10:20:00,23.5,14.9,29.50,ENE,71,0.0,0.0,69,0.00,,---,0.00,VWS V13.00,2013-02-11 19:20:00,
2013-02-11 10:25:00,23.5,14.9,29.50,ENE,71,0.0,0.0,69,0.00,,---,0.00,VWS V13.00,2013-02-11 19:25:00,
2013-02-11 10:30:00,23.5,14.9,29.53,SW,229,0.0,0.0,69,0.00,,---,0.00,VWS V13.00,2013-02-11 19:30:00,
2013-02-11 10:35:00,23.9,15.6,29.53,WSW,245,0.0,0.0,70,0.00,,---,0.00,VWS V13.00,2013-02-11 19:35:00,
2013-02-11 10:40:00,24.4,16.1,29.53,WNW,303,0.0,0.0,70,0.00,,---,0.00,VWS V13.00,2013-02-11 19:40:00,
2013-02-11 10:45:00,24.6,16.2,29.53,NW,317,0.0,0.0,70,0.00,,---,0.00,VWS V13.00,2013-02-11 19:45:00,
2013-02-11 10:50:00,24.6,16.2,29.53,West,280,0.0,0.0,70,0.00,,---,0.00,VWS V13.00,2013-02-11 19:50:00,
2013-02-11 10:55:00,24.6,16.2,29.53,SW,220,0.0,0.0,70,0.00,,---,0.00,VWS V13.00,2013-02-11 19:55:00,
2013-02-11 11:00:00,24.6,16.2,29.53,SSW,213,0.0,0.0,70,0.00,,---,0.00,VWS V13.00,2013-02-11 20:00:00,
2013-02-11 11:05:00,26.1,14.1,29.53,SSW,213,0.0,0.0,60,0.00,,---,0.00,VWS V13.00,2013-02-11 20:05:00,
2013-02-11 11:10:00,26.1,14.5,29.53,SW,229,0.0,0.0,61,0.00,,---,0.00,VWS V13.00,2013-02-11 20:10:00,
2013-02-11 11:15:00,26.1,14.5,29.53,SSW,210,0.0,0.0,61,0.00,,---,0.00,VWS V13.00,2013-02-11 20:15:00,
2013-02-11 11:20:00,26.1,14.5,29.53,WSW,248,0.0,0.0,61,0.00,,---,0.00,VWS V13.00,2013-02-11 20:20:00,
2013-02-11 11:25:00,26.8,14.4,29.53,SW,228,0.0,0.0,59,0.00,,---,0.00,VWS V13.00,2013-02-11 20:25:00,
2013-02-11 11:30:00,26.8,13.6,29.53,SW,229,0.0,0.0,57,0.00,,---,0.00,VWS V13.00,2013-02-11 20:30:00,
2013-02-11 11:35:00,26.8,13.6,29.53,WSW,240,0.0,0.0,57,0.00,,---,0.00,VWS V13.00,2013-02-11 20:35:00,
2013-02-11 11:40:00,26.8,13.6,29.53,SW,226,0.0,0.0,57,0.00,,---,0.00,VWS V13.00,2013-02-11 20:40:00,
2013-02-11 11:45:00,26.8,13.6,29.53,SW,226,0.0,0.0,57,0.00,,---,0.00,VWS V13.00,2013-02-11 20:45:00,
2013-02-11 11:50:00,27.5,13.1,29.53,SW,226,0.0,0.0,54,0.00,,---,0.00,VWS V13.00,2013-02-11 20:50:00,
2013-02-11 11:55:00,27.5,13.1,29.53,SW,224,0.0,0.0,54,0.00,,---,0.00,VWS V13.00,2013-02-11 20:55:00,
2013-02-11 12:00:00,27.5,13.1,29.53,SW,228,0.0,0.0,54,0.00,,---,0.00,VWS V13.00,2013-02-11 21:00:00,
2013-02-11 12:05:00,27.5,13.1,29.50,SW,227,0.0,0.0,54,0.00,,---,0.00,VWS V13.00,2013-02-11 21:05:00,
2013-02-11 12:10:00,27.5,13.1,29.50,South,183,0.0,0.0,54,0.00,,---,0.00,VWS V13.00,2013-02-11 21:10:00,
2013-02-11 12:15:00,28.4,13.0,29.50,SSW,192,0.0,0.0,52,0.00,,---,0.00,VWS V13.00,2013-02-11 21:15:00,
2013-02-11 12:20:00,28.4,13.0,29.50,WSW,238,0.0,0.0,52,0.00,,---,0.00,VWS V13.00,2013-02-11 21:20:00,
2013-02-11 12:25:00,28.4,13.0,29.50,SW,231,0.0,0.0,52,0.00,,---,0.00,VWS V13.00,2013-02-11 21:25:00,
2013-02-11 12:30:00,28.4,13.0,29.50,WSW,244,0.0,0.0,52,0.00,,---,0.00,VWS V13.00,2013-02-11 21:30:00,
2013-02-11 12:35:00,29.3,13.4,29.50,West,270,0.0,0.0,51,0.00,,---,0.00,VWS V13.00,2013-02-11 21:35:00,
2013-02-11 12:40:00,29.5,13.1,29.50,WSW,246,0.0,0.0,50,0.00,,---,0.00,VWS V13.00,2013-02-11 21:40:00,
2013-02-11 12:45:00,29.5,13.1,29.50,WSW,240,0.0,0.0,50,0.00,,---,0.00,VWS V13.00,2013-02-11 21:45:00,
2013-02-11 12:50:00,29.5,13.1,29.50,WSW,243,0.0,0.0,50,0.00,,---,0.00,VWS V13.00,2013-02-11 21:50:00,
2013-02-11 12:55:00,29.5,13.1,29.50,WSW,239,0.0,0.0,50,0.00,,---,0.00,VWS V13.00,2013-02-11 21:55:00,
2013-02-11 13:00:00,29.5,13.1,29.50,SW,225,0.0,0.0,50,0.00,,---,0.00,VWS V13.00,2013-02-11 22:00:00,
2013-02-11 13:05:00,29.3,11.6,29.50,SW,230,0.0,0.0,47,0.00,,---,0.00,VWS V13.00,2013-02-11 22:05:00,
2013-02-11 13:10:00,29.3,11.6,29.50,SW,228,0.0,0.0,47,0.00,,---,0.00,VWS V13.00,2013-02-11 22:10:00,
2013-02-11 13:15:00,29.3,11.6,29.50,WSW,249,0.0,0.0,47,0.00,,---,0.00,VWS V13.00,2013-02-11 22:15:00,
2013-02-11 13:20:00,29.3,11.6,29.50,SW,227,0.0,0.0,47,0.00,,---,0.00,VWS V13.00,2013-02-11 22:20:00,
2013-02-11 13:25:00,29.8,12.6,29.50,SSW,209,0.0,0.0,48,0.00,,---,0.00,VWS V13.00,2013-02-11 22:25:00,
2013-02-11 13:30:00,30.2,12.9,29.50,SW,225,0.0,0.0,48,0.00,,---,0.00,VWS V13.00,2013-02-11 22:30:00,
2013-02-11 13:35:00,30.2,12.9,29.50,SSW,201,0.0,0.0,48,0.00,,---,0.00,VWS V13.00,2013-02-11 22:35:00,
2013-02-11 13:40:00,30.2,12.9,29.50,SSW,201,0.0,0.0,48,0.00,,---,0.00,VWS V13.00,2013-02-11 22:40:00,
2013-02-11 13:45:00,30.4,13.1,29.50,SSW,207,0.0,0.0,48,0.00,,---,0.00,VWS V13.00,2013-02-11 22:45:00,
2013-02-11 13:50:00,30.6,13.7,29.50,SSW,198,0.0,0.0,49,0.00,,---,0.00,VWS V13.00,2013-02-11 22:50:00,
2013-02-11 13:55:00,30.6,13.7,29.50,SSW,212,0.0,0.0,49,0.00,,---,0.00,VWS V13.00,2013-02-11 22:55:00,
2013-02-11 14:00:00,30.6,13.7,29.50,SSW,209,0.0,0.0,49,0.00,,---,0.00,VWS V13.00,2013-02-11 23:00:00,
2013-02-11 14:05:00,31.3,14.8,29.47,SW,234,0.0,0.0,50,0.00,,---,0.00,VWS V13.00,2013-02-11 23:05:00,
2013-02-11 14:10:00,32.5,17.8,29.47,WSW,240,0.0,0.0,54,0.00,,---,0.00,VWS V13.00,2013-02-11 23:10:00,
2013-02-11 14:15:00,32.5,17.3,29.47,SSW,213,0.0,0.0,53,0.00,,---,0.00,VWS V13.00,2013-02-11 23:15:00,
2013-02-11 14:20:00,32.5,17.3,29.47,SSW,208,0.0,0.0,53,0.00,,---,0.00,VWS V13.00,2013-02-11 23:20:00,
2013-02-11 14:25:00,32.5,17.3,29.47,SW,224,0.0,0.0,53,0.00,,---,0.00,VWS V13.00,2013-02-11 23:25:00,
2013-02-11 14:30:00,32.5,17.3,29.47,SSW,211,0.0,0.0,53,0.00,,---,0.00,VWS V13.00,2013-02-11 23:30:00,
2013-02-11 14:35:00,33.6,21.2,29.47,SW,222,0.0,0.0,60,0.00,,---,0.00,VWS V13.00,2013-02-11 23:35:00,
2013-02-11 14:40:00,34.0,22.0,29.47,SSW,205,0.0,0.0,61,0.00,,---,0.00,VWS V13.00,2013-02-11 23:40:00,
2013-02-11 14:45:00,34.0,22.0,29.47,WSW,243,0.0,0.0,61,0.00,,---,0.00,VWS V13.00,2013-02-11 23:45:00,
2013-02-11 14:50:00,34.0,22.0,29.47,SW,218,0.0,0.0,61,0.00,,---,0.00,VWS V13.00,2013-02-11 23:50:00,
2013-02-11 14:55:00,34.2,24.4,29.47,SSW,205,0.0,0.0,67,0.00,,---,0.00,VWS V13.00,2013-02-11 23:55:00,
2013-02-11 15:00:00,34.2,24.4,29.47,SSW,204,0.0,0.0,67,0.00,,---,0.00,VWS V13.00,2013-02-12 00:00:00,
2013-02-11 15:05:00,34.2,24.7,29.47,South,180,0.0,0.0,68,0.00,,---,0.00,VWS V13.00,2013-02-12 00:05:00,
2013-02-11 15:10:00,34.2,24.7,29.47,SSW,204,0.0,0.0,68,0.00,,---,0.00,VWS V13.00,2013-02-12 00:10:00,
2013-02-11 15:15:00,34.2,24.7,29.47,SSW,204,0.0,0.0,68,0.00,,---,0.00,VWS V13.00,2013-02-12 00:15:00,
2013-02-11 15:20:00,34.3,26.6,29.47,SW,231,0.0,0.0,73,0.00,,---,0.00,VWS V13.00,2013-02-12 00:20:00,
2013-02-11 15:25:00,34.3,26.6,29.47,SW,219,0.0,0.0,73,0.00,,---,0.00,VWS V13.00,2013-02-12 00:25:00,
2013-02-11 15:30:00,34.3,26.6,29.47,SW,232,0.0,0.0,73,0.00,,---,0.00,VWS V13.00,2013-02-12 00:30:00,
2013-02-11 15:35:00,34.3,26.6,29.47,SSW,209,0.0,0.0,73,0.00,,---,0.00,VWS V13.00,2013-02-12 00:35:00,
2013-02-11 15:40:00,34.3,26.6,29.47,SW,226,0.0,0.0,73,0.00,,---,0.00,VWS V13.00,2013-02-12 00:40:00,
2013-02-11 15:45:00,34.3,27.6,29.47,SSW,199,0.0,0.0,76,0.00,,---,0.00,VWS V13.00,2013-02-12 00:45:00,
2013-02-11 15:50:00,34.2,27.4,29.47,SW,220,0.0,0.0,76,0.00,,---,0.00,VWS V13.00,2013-02-12 00:50:00,
2013-02-11 15:55:00,34.2,27.4,29.44,SSW,211,0.0,0.0,76,0.00,,---,0.00,VWS V13.00,2013-02-12 00:55:00,
2013-02-11 16:00:00,34.2,27.4,29.44,WSW,248,0.0,0.0,76,0.00,,---,0.00,VWS V13.00,2013-02-12 01:00:00,
2013-02-11 16:05:00,34.2,27.4,29.44,SW,218,0.0,0.0,76,0.00,,---,0.00,VWS V13.00,2013-02-12 01:05:00,
2013-02-11 16:10:00,34.2,28.0,29.44,SSW,200,0.0,0.0,78,0.00,,---,0.00,VWS V13.00,2013-02-12 01:10:00,
2013-02-11 16:15:00,34.2,28.0,29.44,SSW,207,0.0,0.0,78,0.00,,---,0.00,VWS V13.00,2013-02-12 01:15:00,
2013-02-11 16:20:00,34.2,28.0,29.44,SW,226,0.0,0.0,78,0.00,,---,0.00,VWS V13.00,2013-02-12 01:20:00,
2013-02-11 16:25:00,34.2,28.0,29.44,WSW,239,0.0,0.0,78,0.00,,---,0.00,VWS V13.00,2013-02-12 01:25:00,
2013-02-11 16:30:00,34.2,28.6,29.44,SW,232,0.0,0.0,80,0.00,,---,0.00,VWS V13.00,2013-02-12 01:30:00,
2013-02-11 16:35:00,34.2,28.6,29.44,SW,217,0.0,0.0,80,0.00,,---,0.00,VWS V13.00,2013-02-12 01:35:00,
2013-02-11 16:40:00,34.2,28.6,29.44,SW,224,0.0,0.0,80,0.00,,---,0.00,VWS V13.00,2013-02-12 01:40:00,
2013-02-11 16:45:00,34.2,28.6,29.44,SW,233,0.0,0.0,80,0.00,,---,0.00,VWS V13.00,2013-02-12 01:45:00,
2013-02-11 16:50:00,34.2,28.6,29.44,WNW,293,0.0,0.0,80,0.00,,---,0.00,VWS V13.00,2013-02-12 01:50:00,
2013-02-11 16:55:00,34.2,29.0,29.44,WNW,296,0.0,0.0,81,0.00,,---,0.00,VWS V13.00,2013-02-12 01:55:00,
2013-02-11 17:00:00,34.2,29.0,29.44,WNW,301,0.0,0.0,81,0.00,,---,0.00,VWS V13.00,2013-02-12 02:00:00,
2013-02-11 17:05:00,34.2,29.0,29.44,WNW,301,0.0,0.0,81,0.00,,---,0.00,VWS V13.00,2013-02-12 02:05:00,
2013-02-11 17:10:00,34.2,29.0,29.44,WNW,301,0.0,0.0,81,0.00,,---,0.00,VWS V13.00,2013-02-12 02:10:00,
2013-02-11 17:15:00,34.2,29.0,29.44,WNW,301,0.0,0.0,81,0.00,,---,0.00,VWS V13.00,2013-02-12 02:15:00,
2013-02-11 17:20:00,33.6,28.4,29.44,WNW,301,0.0,0.0,81,0.00,,---,0.00,VWS V13.00,2013-02-12 02:20:00,
2013-02-11 17:25:00,33.4,28.2,29.44,WNW,301,0.0,0.0,81,0.00,,---,0.00,VWS V13.00,2013-02-12 02:25:00,
2013-02-11 17:30:00,33.4,28.2,29.44,WNW,301,0.0,0.0,81,0.00,,---,0.00,VWS V13.00,2013-02-12 02:30:00,
2013-02-11 17:35:00,33.4,28.2,29.44,WNW,301,0.0,0.0,81,0.00,,---,0.00,VWS V13.00,2013-02-12 02:35:00,
2013-02-11 17:40:00,33.4,28.2,29.44,WNW,301,0.0,0.0,81,0.00,,---,0.00,VWS V13.00,2013-02-12 02:40:00,
2013-02-11 17:45:00,32.9,27.4,29.44,WNW,301,0.0,0.0,80,0.00,,---,0.00,VWS V13.00,2013-02-12 02:45:00,
2013-02-11 17:50:00,32.9,27.4,29.44,WSW,246,0.0,0.0,80,0.00,,---,0.00,VWS V13.00,2013-02-12 02:50:00,
2013-02-11 17:55:00,32.9,27.4,29.44,SW,229,0.0,0.0,80,0.00,,---,0.00,VWS V13.00,2013-02-12 02:55:00,
2013-02-11 18:00:00,32.9,27.4,29.44,WSW,245,0.0,0.0,80,0.00,,---,0.00,VWS V13.00,2013-02-12 03:00:00,
2013-02-11 18:05:00,32.4,27.2,29.44,WSW,257,0.0,0.0,81,0.00,,---,0.00,VWS V13.00,2013-02-12 03:05:00,
2013-02-11 18:10:00,32.4,27.2,29.44,WSW,240,0.0,0.0,81,0.00,,---,0.00,VWS V13.00,2013-02-12 03:10:00,
2013-02-11 18:15:00,32.4,27.2,29.44,WNW,302,0.0,0.0,81,0.00,,---,0.00,VWS V13.00,2013-02-12 03:15:00,
2013-02-11 18:20:00,32.4,27.2,29.44,WNW,302,0.0,0.0,81,0.00,,---,0.00,VWS V13.00,2013-02-12 03:20:00,
2013-02-11 18:25:00,32.4,27.2,29.44,WNW,302,0.0,0.0,81,0.00,,---,0.00,VWS V13.00,2013-02-12 03:25:00,
2013-02-11 18:30:00,32.0,27.1,29.44,WNW,302,0.0,0.0,82,0.00,,---,0.00,VWS V13.00,2013-02-12 03:30:00,
2013-02-11 18:35:00,31.8,27.0,29.44,SW,235,0.0,0.0,82,0.00,,---,0.00,VWS V13.00,2013-02-12 03:35:00,
2013-02-11 18:40:00,31.8,27.0,29.44,WSW,253,0.0,0.0,82,0.00,,---,0.00,VWS V13.00,2013-02-12 03:40:00,
2013-02-11 18:45:00,31.8,27.0,29.44,WSW,245,0.0,0.0,82,0.00,,---,0.00,VWS V13.00,2013-02-12 03:45:00,
2013-02-11 18:50:00,31.6,26.8,29.44,SSW,204,0.0,0.0,82,0.00,,---,0.00,VWS V13.00,2013-02-12 03:50:00,
2013-02-11 18:55:00,31.5,26.6,29.44,SSW,204,0.0,0.0,82,0.00,,---,0.00,VWS V13.00,2013-02-12 03:55:00,
2013-02-11 19:00:00,31.3,26.7,29.44,SSW,197,0.0,0.0,83,0.00,,---,0.00,VWS V13.00,2013-02-12 04:00:00,
2013-02-11 19:05:00,31.3,26.7,29.44,SSE,147,0.0,0.0,83,0.00,,---,0.00,VWS V13.00,2013-02-12 04:05:00,
2013-02-11 19:10:00,31.3,26.7,29.44,SSE,147,0.0,0.0,83,0.00,,---,0.00,VWS V13.00,2013-02-12 04:10:00,
2013-02-11 19:15:00,30.6,26.9,29.44,SE,139,0.0,0.0,86,0.00,,---,0.00,VWS V13.00,2013-02-12 04:15:00,
2013-02-11 19:20:00,30.6,26.9,29.44,ESE,122,0.0,0.0,86,0.00,,---,0.00,VWS V13.00,2013-02-12 04:20:00,
2013-02-11 19:25:00,30.6,26.9,29.44,ESE,122,0.0,0.0,86,0.00,,---,0.00,VWS V13.00,2013-02-12 04:25:00,
2013-02-11 19:30:00,30.6,26.9,29.44,ESE,122,0.0,0.0,86,0.00,,---,0.00,VWS V13.00,2013-02-12 04:30:00,
2013-02-11 19:35:00,30.6,26.9,29.44,ESE,122,0.0,0.0,86,0.00,,---,0.00,VWS V13.00,2013-02-12 04:35:00,
2013-02-11 19:40:00,30.0,26.4,29.44,ESE,122,0.0,0.0,86,0.00,,---,0.00,VWS V13.00,2013-02-12 04:40:00,
2013-02-11 19:45:00,30.0,26.4,29.44,ESE,122,0.0,0.0,86,0.00,,---,0.00,VWS V13.00,2013-02-12 04:45:00,
2013-02-11 19:50:00,30.0,26.4,29.44,ESE,122,0.0,0.0,86,0.00,,---,0.00,VWS V13.00,2013-02-12 04:50:00,
2013-02-11 19:55:00,30.0,26.4,29.44,ESE,122,0.0,0.0,86,0.00,,---,0.00,VWS V13.00,2013-02-12 04:55:00,
2013-02-11 20:00:00,30.0,26.4,29.44,ESE,122,0.0,0.0,86,0.00,,---,0.00,VWS V13.00,2013-02-12 05:00:00,
2013-02-11 20:05:00,29.3,25.6,29.44,ESE,122,0.0,0.0,86,0.00,,---,0.00,VWS V13.00,2013-02-12 05:05:00,
2013-02-11 20:10:00,29.3,25.6,29.44,ESE,122,0.0,0.0,86,0.00,,---,0.00,VWS V13.00,2013-02-12 05:10:00,
2013-02-11 20:15:00,29.3,25.6,29.44,ESE,122,0.0,0.0,86,0.00,,---,0.00,VWS V13.00,2013-02-12 05:15:00,
2013-02-11 20:20:00,29.3,25.6,29.44,ESE,122,0.0,0.0,86,0.00,,---,0.00,VWS V13.00,2013-02-12 05:20:00,
2013-02-11 20:25:00,29.3,25.6,29.44,ESE,122,0.0,0.0,86,0.00,,---,0.00,VWS V13.00,2013-02-12 05:25:00,
2013-02-11 20:30:00,29.3,25.6,29.44,ESE,122,0.0,0.0,86,0.00,,---,0.00,VWS V13.00,2013-02-12 05:30:00,
2013-02-11 20:35:00,29.1,26.0,29.44,ESE,122,0.0,0.0,88,0.00,,---,0.00,VWS V13.00,2013-02-12 05:35:00,
2013-02-11 20:40:00,29.1,26.0,29.44,ESE,122,0.0,0.0,88,0.00,,---,0.00,VWS V13.00,2013-02-12 05:40:00,
2013-02-11 20:45:00,29.1,26.0,29.44,ESE,115,0.0,0.0,88,0.00,,---,0.00,VWS V13.00,2013-02-12 05:45:00,
2013-02-11 20:50:00,29.3,26.7,29.44,ESE,109,0.0,0.0,90,0.00,,---,0.00,VWS V13.00,2013-02-12 05:50:00,
2013-02-11 20:55:00,29.3,26.7,29.44,ESE,109,0.0,0.0,90,0.00,,---,0.00,VWS V13.00,2013-02-12 05:55:00,
2013-02-11 21:00:00,29.3,26.7,29.44,ESE,109,0.0,0.0,90,0.00,,---,0.00,VWS V13.00,2013-02-12 06:00:00,
2013-02-11 21:05:00,28.9,26.4,29.44,ESE,109,0.0,0.0,90,0.00,,---,0.00,VWS V13.00,2013-02-12 06:05:00,
2013-02-11 21:10:00,28.9,26.4,29.44,ESE,109,0.0,0.0,90,0.00,,---,0.00,VWS V13.00,2013-02-12 06:10:00,
2013-02-11 21:15:00,28.9,26.4,29.44,ESE,109,0.0,0.0,90,0.00,,---,0.00,VWS V13.00,2013-02-12 06:15:00,
2013-02-11 21:20:00,28.8,26.2,29.44,ESE,109,0.0,0.0,90,0.00,,---,0.00,VWS V13.00,2013-02-12 06:20:00,
2013-02-11 21:25:00,28.8,26.2,29.44,ESE,109,0.0,0.0,90,0.00,,---,0.00,VWS V13.00,2013-02-12 06:25:00,
2013-02-11 21:30:00,28.8,26.2,29.44,ESE,104,0.0,0.0,90,0.00,,---,0.00,VWS V13.00,2013-02-12 06:30:00,
2013-02-11 21:35:00,28.8,26.2,29.44,ESE,104,0.0,0.0,90,0.00,,---,0.00,VWS V13.00,2013-02-12 06:35:00,
2013-02-11 21:40:00,28.8,26.5,29.44,ESE,104,0.0,0.0,91,0.00,,---,0.00,VWS V13.00,2013-02-12 06:40:00,
2013-02-11 21:45:00,28.8,26.5,29.44,ESE,104,0.0,0.0,91,0.00,,---,0.00,VWS V13.00,2013-02-12 06:45:00,
2013-02-11 21:50:00,28.8,26.5,29.44,ESE,104,0.0,0.0,91,0.00,,---,0.00,VWS V13.00,2013-02-12 06:50:00,
2013-02-11 21:55:00,28.8,26.5,29.44,ESE,104,0.0,0.0,91,0.00,,---,0.00,VWS V13.00,2013-02-12 06:55:00,
2013-02-11 22:00:00,28.8,26.5,29.44,WSW,248,0.0,0.0,91,0.00,,---,0.00,VWS V13.00,2013-02-12 07:00:00,
2013-02-11 22:05:00,28.2,25.9,29.44,WSW,257,0.0,0.0,91,0.00,,---,0.00,VWS V13.00,2013-02-12 07:05:00,
2013-02-11 22:10:00,28.2,25.9,29.44,WSW,257,0.0,0.0,91,0.00,,---,0.00,VWS V13.00,2013-02-12 07:10:00,
2013-02-11 22:15:00,28.2,25.9,29.41,WSW,257,0.0,0.0,91,0.00,,---,0.00,VWS V13.00,2013-02-12 07:15:00,
2013-02-11 22:20:00,28.2,25.9,29.41,WSW,257,0.0,0.0,91,0.00,,---,0.00,VWS V13.00,2013-02-12 07:20:00,
2013-02-11 22:25:00,28.4,26.4,29.41,WSW,257,0.0,0.0,92,0.00,,---,0.00,VWS V13.00,2013-02-12 07:25:00,
2013-02-11 22:30:00,28.6,26.3,29.41,South,171,0.0,0.0,91,0.00,,---,0.00,VWS V13.00,2013-02-12 07:30:00,
2013-02-11 22:35:00,28.6,26.3,29.41,WSW,239,0.0,0.0,91,0.00,,---,0.00,VWS V13.00,2013-02-12 07:35:00,
2013-02-11 22:40:00,28.6,26.3,29.41,WSW,239,0.0,0.0,91,0.00,,---,0.00,VWS V13.00,2013-02-12 07:40:00,
2013-02-11 22:45:00,28.6,26.3,29.44,WSW,239,0.0,0.0,91,0.00,,---,0.00,VWS V13.00,2013-02-12 07:45:00,
2013-02-11 22:50:00,28.8,26.5,29.44,WSW,239,0.0,0.0,91,0.00,,---,0.00,VWS V13.00,2013-02-12 07:50:00,
2013-02-11 22:55:00,28.8,26.5,29.44,WSW,239,0.0,0.0,91,0.00,,---,0.00,VWS V13.00,2013-02-12 07:55:00,
2013-02-11 23:00:00,28.8,26.5,29.44,WSW,239,0.0,0.0,91,0.00,,---,0.00,VWS V13.00,2013-02-12 08:00:00,
2013-02-11 23:05:00,28.8,26.5,29.44,West,259,0.0,0.0,91,0.00,,---,0.00,VWS V13.00,2013-02-12 08:05:00,
2013-02-11 23:10:00,29.3,27.0,29.44,WNW,298,0.0,0.0,91,0.00,,---,0.00,VWS V13.00,2013-02-12 08:10:00,
2013-02-11 23:15:00,29.5,27.2,29.44,WNW,298,0.0,0.0,91,0.00,,---,0.00,VWS V13.00,2013-02-12 08:15:00,
2013-02-11 23:20:00,29.5,27.2,29.44,WNW,298,0.0,0.0,91,0.00,,---,0.00,VWS V13.00,2013-02-12 08:20:00,
2013-02-11 23:25:00,29.5,27.2,29.44,WNW,298,0.0,0.0,91,0.00,,---,0.00,VWS V13.00,2013-02-12 08:25:00,
2013-02-11 23:30:00,29.5,27.2,29.44,WNW,298,0.0,0.0,91,0.00,,---,0.00,VWS V13.00,2013-02-12 08:30:00,
2013-02-11 23:35:00,29.5,27.2,29.44,WNW,298,0.0,0.0,91,0.00,,---,0.00,VWS V13.00,2013-02-12 08:35:00,
2013-02-11 23:40:00,30.2,28.2,29.44,WNW,298,0.0,0.0,92,0.00,,---,0.00,VWS V13.00,2013-02-12 08:40:00,
2013-02-11 23:45:00,30.0,28.0,29.44,WNW,298,0.0,0.0,92,0.00,,---,0.00,VWS V13.00,2013-02-12 08:45:00,
2013-02-11 23:50:00,30.0,28.0,29.44,WNW,298,0.0,0.0,92,0.00,,---,0.00,VWS V13.00,2013-02-12 08:50:00,
2013-02-11 23:55:00,30.0,28.0,29.44,WNW,298,0.0,0.0,92,0.00,,---,0.00,VWS V13.00,2013-02-12 08:55:00,